Location: Central Falls
(41.8900°N, 71.3929°W)
Time: 07:57:50
(UTC+00:00)

Tiros 1 despin weight - Pass Details

Date: 11 December 2023
Orbit: 581 x 624 km, 48.2° (Epoch: 29 February)

Event Time Altitude Azimuth Distance (km) Brightness Sun altitude
Rises 20:07:16 0° 232° (SW) 2,826 ? 9.2°
Reaches altitude 10° 20:09:35 10° 229° (SW) 1,919 ? 8.9°
Maximum altitude 20:13:56 65° 148° (SSE) 647 ? 8.3°
Drops below altitude 10° 20:18:15 10° 67° (ENE) 1,904 ? 7.7°
Sets 20:20:32 0° 64° (ENE) 2,803 ? 7.3°
